W7KKE-3 Weather Reports


Display with metric or nautical units.
time (UTC)temp
F
wind
direction
speed
MPH
gust
MPH
rain 1hr
in
rain 24hr
in
rain mn
in
humidity
%
barometer
mb
20180421033615 52 168 2.0 5.0 0.00 0.00 0.00 83 1023.9
20180421033115 52 135 0.0 6.0 0.00 0.00 0.00 82 1023.9
20180421031615 52 82 1.0 4.0 0.00 0.00 0.00 82 1023.9
20180421031116 52 79 0.0 5.0 0.00 0.00 0.00 82 1023.8
20180421030615 52 176 2.0 5.0 0.00 0.00 0.00 82 1023.9
20180421030116 53 142 2.0 5.0 0.00 0.00 0.00 82 1024.0
20180421025616 53 0 0.0 0.0 0.00 0.00 0.00 82 1024.0
20180421025115 53 106 0.0 5.0 0.00 0.00 0.00 82 1024.0
20180421024616 53 116 0.0 5.0 0.00 0.00 0.00 82 1024.0
20180421024115 53 165 1.0 5.0 0.00 0.00 0.00 82 1024.0
20180421023616 53 240 3.0 9.0 0.00 0.00 0.00 82 1023.7
20180421023115 53 120 4.0 9.0 0.00 0.00 0.00 82 1023.9
20180421022616 53 148 0.0 9.0 0.00 0.00 0.00 81 1024.1
20180421022115 53 166 4.0 8.0 0.00 0.00 0.00 82 1024.1
20180421021615 53 145 3.0 7.0 0.00 0.00 0.00 82 1024.2
20180421021116 53 142 5.0 7.0 0.00 0.00 0.00 82 1024.1
20180421015616 54 155 2.0 7.0 0.00 0.00 0.00 83 1024.3
20180421015117 54 182 2.0 7.0 0.00 0.00 0.00 83 1024.3
20180421013615 54 211 5.0 5.0 0.00 0.00 0.00 82 1024.4
20180421013115 54 158 2.0 5.0 0.00 0.00 0.00 82 1024.4
20180421012616 54 147 3.0 8.0 0.00 0.00 0.00 82 1024.5
20180421012115 54 246 1.0 8.0 0.00 0.00 0.00 82 1024.5
20180421011115 55 235 3.0 6.0 0.00 0.00 0.00 83 1024.5
20180421010615 55 204 3.0 7.0 0.00 0.00 0.00 84 1024.6
20180421010115 55 266 3.0 7.0 0.00 0.00 0.00 84 1024.6
20180421005616 55 268 4.0 7.0 0.00 0.00 0.00 84 1024.6
20180421005115 55 263 4.0 7.0 0.00 0.00 0.00 84 1024.6
20180421004615 55 294 3.0 8.0 0.00 0.00 0.00 84 1024.6
20180421004115 55 277 3.0 8.0 0.00 0.00 0.00 84 1024.6
20180421003615 56 264 4.0 8.0 0.00 0.00 0.00 84 1024.5
20180421001615 56 256 5.0 7.0 0.00 0.00 0.00 86 1024.4
20180421001116 57 222 3.0 7.0 0.00 0.00 0.00 86 1024.3
20180420235615 57 212 3.0 6.0 0.00 0.00 0.00 87 1024.1
20180420235115 57 228 3.0 6.0 0.00 0.00 0.00 87 1024.0
20180420234615 57 226 3.0 6.0 0.00 0.00 0.00 87 1023.9
20180420234115 57 218 3.0 6.0 0.00 0.00 0.00 86 1023.9
20180420233615 57 198 2.0 7.0 0.00 0.00 0.00 86 1024.0
20180420231615 57 254 3.0 7.0 0.00 0.00 0.00 85 1024.2
20180420231115 57 261 4.0 7.0 0.00 0.00 0.00 84 1024.1
20180420230615 57 240 5.0 6.0 0.00 0.00 0.00 85 1024.2
20180420230115 57 264 3.0 6.0 0.00 0.00 0.00 86 1024.3
20180420225616 57 281 4.0 7.0 0.00 0.00 0.00 85 1024.3
20180420224115 57 261 4.0 6.0 0.00 0.00 0.00 85 1024.2
20180420223615 57 259 5.0 6.0 0.00 0.00 0.00 84 1024.3
20180420223115 57 243 3.0 5.0 0.00 0.00 0.00 85 1024.2
20180420222615 57 268 2.0 5.0 0.00 0.00 0.00 85 1024.2
20180420222115 57 275 2.0 6.0 0.00 0.00 0.00 86 1024.3
20180420221614 57 282 3.0 6.0 0.00 0.00 0.00 85 1024.3
20180420221115 57 267 3.0 6.0 0.00 0.00 0.00 85 1024.3
20180420220615 57 285 4.0 7.0 0.00 0.00 0.00 85 1024.4
20180420220115 57 266 3.0 7.0 0.00 0.00 0.00 85 1024.5
20180420215615 57 253 2.0 7.0 0.00 0.00 0.00 85 1024.5
20180420215115 57 274 2.0 6.0 0.00 0.00 0.00 85 1024.4
20180420214115 57 249 2.0 7.0 0.00 0.00 0.00 85 1024.5
20180420213615 57 257 2.0 7.0 0.00 0.00 0.00 85 1024.5
20180420213115 57 270 4.0 7.0 0.00 0.00 0.00 86 1024.5
20180420212615 57 278 5.0 8.0 0.00 0.00 0.00 86 1024.7
20180420212114 56 240 3.0 8.0 0.00 0.00 0.00 86 1024.5
20180420211614 56 261 4.0 8.0 0.00 0.00 0.00 87 1024.6
20180420211115 56 261 3.0 6.0 0.00 0.00 0.00 86 1024.4
20180420210615 56 264 2.0 6.0 0.00 0.00 0.00 85 1024.7
20180420210115 57 270 3.0 5.0 0.00 0.00 0.00 86 1024.7
20180420205616 57 268 3.0 5.0 0.00 0.00 0.00 85 1024.7
20180420205115 57 224 2.0 6.0 0.00 0.00 0.00 88 1024.4
20180420204614 57 296 3.0 6.0 0.00 0.00 0.00 87 1024.4
20180420204115 57 264 0.0 6.0 0.00 0.00 0.00 88 1024.6
20180420203614 56 277 4.0 6.0 0.00 0.00 0.00 88 1024.7
20180420203115 56 268 3.0 5.0 0.00 0.00 0.00 88 1024.6
20180420202615 56 256 2.0 6.0 0.00 0.00 0.00 89 1024.7
20180420202117 56 274 2.0 6.0 0.00 0.00 0.00 88 1024.7
20180420201614 56 264 3.0 6.0 0.00 0.00 0.00 87 1024.8
20180420200114 56 266 3.0 7.0 0.00 0.00 0.00 88 1024.8
20180420195615 57 252 3.0 7.0 0.00 0.00 0.00 87 1024.9
20180420195114 57 271 4.0 6.0 0.00 0.00 0.00 87 1024.8
20180420194614 57 263 5.0 6.0 0.00 0.00 0.00 87 1024.8
20180420194115 57 310 5.0 7.0 0.00 0.00 0.00 86 1024.8
20180420193614 57 281 4.0 7.0 0.00 0.00 0.00 88 1024.9
20180420193114 56 298 5.0 7.0 0.00 0.00 0.00 90 1025.0
20180420192615 56 273 4.0 7.0 0.00 0.00 0.00 89 1024.9
20180420192114 55 250 4.0 7.0 0.00 0.00 0.00 89 1025.0
20180420191614 55 273 4.0 7.0 0.00 0.00 0.00 89 1025.0
20180420191115 55 273 5.0 7.0 0.00 0.00 0.00 89 1025.1
20180420190614 54 267 3.0 6.0 0.00 0.00 0.00 90 1025.0
20180420190114 54 295 2.0 5.0 0.00 0.00 0.00 90 1024.8
20180420185616 54 303 2.0 5.0 0.00 0.00 0.00 91 1025.0
20180420185114 54 267 2.0 6.0 0.00 0.00 0.00 91 1025.0
20180420184614 53 266 3.0 6.0 0.00 0.00 0.00 91 1025.1
20180420184115 53 278 4.0 6.0 0.00 0.00 0.00 91 1025.0
20180420183615 53 282 2.0 5.0 0.00 0.00 0.00 91 1025.0
20180420182115 53 302 3.0 7.0 0.00 0.00 0.00 92 1025.0
20180420181614 53 264 4.0 7.0 0.00 0.00 0.00 92 1025.1
20180420181115 53 268 3.0 6.0 0.00 0.00 0.00 93 1025.0
20180420180615 53 281 4.0 6.0 0.00 0.00 0.00 93 1024.9
20180420180115 53 295 2.0 4.0 0.00 0.00 0.00 93 1024.8
20180420175615 52 277 1.0 4.0 0.00 0.00 0.00 93 1024.7
20180420175115 52 296 0.0 2.0 0.00 0.00 0.00 93 1024.7
20180420174614 52 232 0.0 5.0 0.00 0.00 0.00 94 1024.7
20180420174115 52 294 0.0 5.0 0.00 0.00 0.00 94 1024.8
20180420173614 52 260 2.0 5.0 0.00 0.00 0.00 94 1025.0
20180420173115 52 259 3.0 6.0 0.00 0.00 0.00 94 1025.1
20180420172616 52 287 2.0 6.0 0.00 0.00 0.00 94 1025.1
20180420172116 51 261 4.0 6.0 0.00 0.00 0.00 94 1025.2
20180420171614 51 281 4.0 4.0 0.00 0.00 0.00 94 1025.2
20180420171115 51 250 0.0 3.0 0.00 0.00 0.00 94 1024.9
20180420170614 51 0 0.0 0.0 0.00 0.00 0.00 93 1024.9
20180420170114 51 222 0.0 4.0 0.00 0.00 0.00 94 1024.8
20180420165615 51 238 0.0 4.0 0.00 0.00 0.00 94 1024.8
20180420164115 50 0 0.0 0.0 0.00 0.00 0.00 94 1025.0
20180420163614 50 0 0.0 0.0 0.00 0.00 0.00 94 1025.1
20180420163114 50 0 0.0 0.0 0.00 0.00 0.00 94 1025.0
20180420161115 50 0 0.0 0.0 0.00 0.00 0.00 95 1024.9
20180420160614 50 0 0.0 0.0 0.00 0.00 0.00 95 1024.9
20180420154614 48 0 0.0 0.0 0.00 0.00 0.00 96 1024.9
20180420154115 47 0 0.0 8.0 0.00 0.00 0.00 96 1024.9
20180420153615 46 89 0.0 8.0 0.00 0.00 0.00 96 1024.9
20180420153114 46 102 0.0 8.0 0.00 0.00 0.00 97 1025.0
20180420152615 45 113 0.0 7.0 0.00 0.00 0.00 97 1025.0
20180420152115 45 93 0.0 7.0 0.00 0.00 0.00 96 1025.1
20180420151614 45 91 2.0 7.0 0.00 0.00 0.00 97 1025.2
20180420150614 44 105 0.0 3.0 0.00 0.00 0.00 97 1025.5
20180420150114 44 60 0.0 4.0 0.00 0.00 0.00 97 1025.5
20180420145615 44 82 0.0 4.0 0.00 0.00 0.00 97 1025.5
20180420145114 43 95 1.0 4.0 0.00 0.00 0.00 97 1025.5
20180420144614 43 0 0.0 0.0 0.00 0.00 0.00 97 1025.5
20180420144115 43 65 0.0 4.0 0.00 0.00 0.00 97 1025.5
20180420143614 42 0 0.0 4.0 0.00 0.00 0.00 97 1025.5
20180420143114 42 81 0.0 4.0 0.00 0.00 0.00 97 1025.4
20180420142615 42 65 1.0 4.0 0.00 0.00 0.00 97 1025.4
20180420140614 41 0 0.0 0.0 0.00 0.00 0.00 97 1025.2
20180420140114 41 78 0.0 5.0 0.00 0.00 0.00 97 1025.2
20180420135615 41 89 2.0 5.0 0.00 0.00 0.00 97 1025.2
20180420135114 41 107 3.0 5.0 0.00 0.00 0.00 97 1025.2
20180420134614 41 109 3.0 5.0 0.00 0.00 0.00 97 1025.3
20180420132616 40 85 3.0 5.0 0.00 0.00 0.00 97 1025.2
20180420132115 40 79 2.0 5.0 0.00 0.00 0.00 97 1025.1
20180420131614 40 105 2.0 5.0 0.00 0.00 0.00 97 1025.0
20180420131114 40 103 3.0 5.0 0.00 0.00 0.00 97 1025.1
20180420130614 40 91 3.0 4.0 0.00 0.00 0.00 97 1025.0
20180420130114 40 71 1.0 7.0 0.00 0.00 0.00 97 1025.1
20180420125616 40 71 2.0 7.0 0.00 0.00 0.00 97 1025.1
20180420125115 40 86 3.0 7.0 0.00 0.00 0.00 97 1025.1
20180420124614 41 75 3.0 6.0 0.00 0.00 0.00 97 1025.0
20180420124114 41 84 3.0 5.0 0.00 0.00 0.00 97 1025.0
20180420123614 41 88 4.0 5.0 0.00 0.00 0.00 97 1025.1
20180420123114 41 82 3.0 5.0 0.00 0.00 0.00 97 1025.1
20180420122615 41 79 3.0 5.0 0.00 0.00 0.00 97 1025.1
20180420122115 41 81 3.0 5.0 0.00 0.00 0.00 97 1025.1
20180420121614 41 92 3.0 4.0 0.00 0.00 0.00 97 1025.1
20180420121114 41 72 0.0 3.0 0.00 0.00 0.00 97 1025.1
20180420120614 41 77 1.0 6.0 0.00 0.00 0.00 97 1025.2
20180420114614 41 89 1.0 6.0 0.00 0.00 0.00 97 1025.0
20180420114114 41 74 0.0 6.0 0.00 0.00 0.00 97 1025.1
20180420113614 41 23 0.0 6.0 0.00 0.00 0.00 97 1025.1
20180420113114 41 63 0.0 5.0 0.00 0.00 0.00 97 1025.3
20180420112615 41 86 1.0 5.0 0.00 0.00 0.00 97 1025.2
20180420112115 41 68 1.0 5.0 0.00 0.00 0.00 97 1025.2
20180420111614 42 84 3.0 5.0 0.00 0.00 0.00 97 1025.2
20180420111114 42 102 3.0 7.0 0.00 0.00 0.00 97 1025.4
20180420110614 42 95 2.0 7.0 0.00 0.00 0.00 97 1025.4
20180420110114 42 72 3.0 7.0 0.00 0.00 0.00 97 1025.5
20180420105615 42 67 5.0 7.0 0.00 0.00 0.00 97 1025.5
20180420105114 42 79 4.0 6.0 0.00 0.00 0.00 97 1025.5
20180420104614 42 82 4.0 4.0 0.00 0.00 0.00 97 1025.6
20180420104114 42 81 2.0 6.0 0.00 0.00 0.00 97 1025.8
20180420103614 42 86 0.0 6.0 0.00 0.00 0.00 97 1025.8
20180420103114 42 89 2.0 6.0 0.00 0.00 0.00 97 1025.8
20180420102615 42 33 3.0 5.0 0.00 0.00 0.00 97 1025.7
20180420102114 42 84 3.0 6.0 0.00 0.00 0.00 97 1025.5
20180420101614 43 78 3.0 6.0 0.00 0.00 0.00 97 1025.4
20180420101114 42 96 3.0 6.0 0.00 0.00 0.00 97 1025.4
20180420100615 42 78 3.0 6.0 0.00 0.00 0.00 97 1025.4
20180420100114 42 102 4.0 5.0 0.00 0.00 0.00 97 1025.5
20180420095615 42 78 4.0 5.0 0.00 0.00 0.00 97 1025.4
20180420095115 42 86 3.0 5.0 0.00 0.00 0.00 97 1025.4
20180420094615 42 84 1.0 5.0 0.00 0.00 0.00 97 1025.4
20180420094115 42 79 2.0 5.0 0.00 0.00 0.00 97 1025.3
20180420093615 43 82 2.0 5.0 0.00 0.00 0.00 97 1025.4
20180420093115 43 92 3.0 5.0 0.00 0.00 0.00 97 1025.4
20180420092615 43 84 2.0 4.0 0.00 0.00 0.00 97 1025.5
20180420092115 43 84 3.0 4.0 0.00 0.00 0.00 97 1025.4
20180420091614 43 99 0.0 5.0 0.00 0.00 0.00 97 1025.6
20180420091115 43 84 3.0 5.0 0.00 0.00 0.00 97 1025.6
20180420090614 43 77 3.0 5.0 0.00 0.00 0.00 97 1025.6
20180420090115 43 78 3.0 5.0 0.00 0.00 0.00 97 1025.7
20180420085615 43 77 4.0 5.0 0.00 0.00 0.00 97 1025.8
20180420085115 43 64 3.0 4.0 0.00 0.00 0.00 97 1025.8
20180420084614 43 78 2.0 5.0 0.00 0.00 0.00 97 1025.9
20180420084115 43 78 0.0 5.0 0.00 0.00 0.00 97 1025.9
20180420083614 43 86 2.0 5.0 0.00 0.00 0.00 97 1025.9
20180420083114 44 78 3.0 5.0 0.00 0.00 0.00 96 1025.9
20180420082615 44 77 3.0 6.0 0.00 0.00 0.00 96 1026.0
20180420082115 44 79 3.0 6.0 0.00 0.00 0.00 96 1026.1
20180420081614 44 86 3.0 6.0 0.00 0.00 0.00 96 1026.0
20180420081114 44 82 4.0 7.0 0.00 0.00 0.00 96 1026.1
20180420080614 44 74 4.0 7.0 0.00 0.00 0.00 96 1026.1
20180420080114 44 72 4.0 7.0 0.00 0.00 0.00 96 1026.1
20180420075616 45 81 3.0 5.0 0.00 0.00 0.00 96 1026.1
20180420075115 45 82 2.0 6.0 0.00 0.00 0.00 96 1026.1
20180420074614 45 82 3.0 6.0 0.00 0.00 0.00 96 1026.1
20180420074116 45 71 3.0 6.0 0.00 0.00 0.00 96 1026.1
20180420073615 45 82 4.0 5.0 0.00 0.00 0.00 96 1026.0
20180420073114 45 78 4.0 5.0 0.00 0.00 0.00 96 1026.0
20180420072615 45 0 0.0 4.0 0.00 0.00 0.00 96 1025.9
20180420072115 45 71 0.0 4.0 0.00 0.00 0.00 96 1025.8
20180420070615 45 85 2.0 5.0 0.00 0.00 0.00 96 1025.8
20180420070114 45 84 0.0 5.0 0.00 0.00 0.00 96 1025.8
20180420064614 46 77 3.0 3.0 0.00 0.00 0.00 95 1025.9
20180420064114 46 77 2.0 3.0 0.00 0.00 0.00 95 1025.9
20180420063614 46 70 1.0 3.0 0.00 0.00 0.00 95 1025.9
20180420063115 46 0 0.0 5.0 0.00 0.00 0.00 95 1025.8
20180420062615 46 70 0.0 5.0 0.00 0.00 0.00 95 1025.8
20180420061114 47 79 1.0 4.0 0.00 0.00 0.00 95 1025.8
20180420060614 47 0 0.0 1.0 0.00 0.00 0.00 95 1025.8
20180420060115 47 0 0.0 1.0 0.00 0.00 0.00 94 1025.7
20180420055615 47 61 0.0 1.0 0.00 0.00 0.00 94 1025.7
20180420055114 47 72 0.0 5.0 0.00 0.00 0.00 94 1025.7
20180420054614 47 89 1.0 5.0 0.00 0.00 0.00 94 1025.7
20180420052615 48 82 0.0 2.0 0.00 0.00 0.00 93 1025.9
20180420052114 47 0 0.0 0.0 0.00 0.00 0.00 93 1025.9
20180420050615 48 82 1.0 3.0 0.00 0.00 0.00 92 1025.7
20180420050114 48 92 0.0 3.0 0.00 0.00 0.00 92 1025.8
20180420045615 48 68 0.0 1.0 0.00 0.00 0.00 92 1025.8
20180420045114 48 0 0.0 0.0 0.00 0.00 0.00 91 1025.8
20180420043115 49 0 0.0 1.0 0.00 0.00 0.00 91 1025.6
20180420042615 49 81 0.0 4.0 0.00 0.00 0.00 91 1025.6
20180420042114 49 0 0.0 4.0 0.00 0.00 0.00 90 1025.6
20180420041614 50 1 0.0 4.0 0.00 0.00 0.00 90 1025.6
20180420041114 50 298 0.0 4.0 0.00 0.00 0.00 90 1025.6
20180420035114 50 319 1.0 9.0 0.00 0.00 0.00 90 1025.4
20180420034614 50 5 0.0 9.0 0.00 0.00 0.00 89 1025.4